Weather reports worldwide

Advertisment
Leipzig, Germany (10471): temperature & dewpoint: 18.08.2019 07:00:00 - 24.08.2019 07:00:00 (CEST)Leipzig, Germany (10471): temperature 5cm & temperature -5cm: 18.08.2019 07:00:00 - 24.08.2019 07:00:00 (CEST)Leipzig, Germany (10471): temperature -20cm & temperature -100cm: 18.08.2019 07:00:00 - 24.08.2019 07:00:00 (CEST)Leipzig, Germany (10471): wind speed & gusts: 18.08.2019 07:00:00 - 24.08.2019 07:00:00 (CEST)Leipzig, Germany (10471): wind direction: 18.08.2019 07:00:00 - 24.08.2019 07:00:00 (CEST)Leipzig, Germany (10471): reduced air pressure: 18.08.2019 07:00:00 - 24.08.2019 07:00:00 (CEST)Leipzig, Germany (10471): visibility: 18.08.2019 07:00:00 - 24.08.2019 07:00:00 (CEST)Leipzig, Germany (10471): sunshine duration: 18.08.2019 07:00:00 - 24.08.2019 07:00:00 (CEST)Leipzig, Germany (10471): precipitation: 18.08.2019 07:00:00 - 24.08.2019 07:00:00 (CEST)
Date & Time tt [°C] td [°C] tt 5cm [°C] tt -5cm [°C] tt -20cm [°C] tt -100cm [°C] ff [km/h] ff [kn] fx [km/h] fx [kn] dd ppp [hPa] vv [km] sd [min] rr [mm]
24.08.2019 07:00:00 13,0 11,4 10,3 16,0 20,1 19,2 4 2 9 5 E 1023,9 12 0 0,0
24.08.2019 06:00:00 12,6 10,5 9,6 16,3 20,5 19,2 3 2 10 5 E 1023,9 12 0 0,0
24.08.2019 05:00:00 12,0 10,2 9,4 16,8 20,8 19,2 3 2 8 5 NE 1024,1 14 0 0,0
24.08.2019 04:00:00 12,6 10,7 9,5 17,3 21,2 19,2 3 2 8 4 E 1024,2 14 0 0,0
24.08.2019 03:00:00 14,2 11,3 10,6 17,9 21,6 19,2 4 2 9 5 ENE 1024,3 20 0 0,0
24.08.2019 02:00:00 15,4 11,5 11,7 18,5 22,0 19,2 5 3 10 6 ENE 1024,3 27 0 0,0
24.08.2019 01:00:00 14,1 11,4 11,1 19,2 22,4 19,2 3 1 6 3 ENE 1024,6 25 0 0,0
24.08.2019 00:00:00 15,0 11,5 12,0 20,0 22,9 19,2 3 2 8 5 ESE 1024,5 25 0 0,0
23.08.2019 23:00:00 15,9 11,6 13,1 21,0 23,3 19,2 2 1 5 3 ESE 1024,6 21 0 0,0
23.08.2019 22:00:00 17,5 11,5 14,5 22,2 23,8 19,2 2 1 5 3 ESE 1024,4 30 0 0,0
23.08.2019 21:00:00 21,2 10,8 15,8 23,7 24,2 19,2 3 2 9 5 E 1024,1 37 0 0,0
23.08.2019 20:00:00 24,6 9,8 19,5 25,8 24,3 19,2 3 1 14 8 E 1023,4 53 43 0,0
23.08.2019 19:00:00 27,1 7,5 27,4 28,1 24,3 19,2 5 3 17 9 E 1023,4 60 60 0,0
23.08.2019 18:00:00 28,0 8,7 29,8 29,8 24,1 19,2 6 3 16 8 E 1023,5 46 60 0,0
23.08.2019 17:00:00 28,0 8,7 32,1 30,9 23,6 19,2 8 4 16 9 NNE 1023,9 30 60 0,0
23.08.2019 16:00:00 27,8 8,1 33,1 31,4 23,0 19,2 6 3 17 9 NE 1024,2 34 60 0,0
23.08.2019 15:00:00 27,4 8,3 31,9 31,1 22,2 19,2 8 5 19 11 SE 1024,8 20 60 0,0
23.08.2019 14:00:00 26,3 9,0 32,2 30,2 21,4 19,2 6 3 16 9 ENE 1025,1 24 60 0,0
23.08.2019 13:00:00 25,7 8,3 31,5 28,7 20,5 19,2 6 4 15 8 N 1025,8 35 60 0,0
23.08.2019 12:00:00 23,9 9,6 30,3 26,6 19,8 19,2 6 3 13 7 NE 1026,4 24 60 0,0
23.08.2019 11:00:00 22,8 11,2 27,6 24,1 19,1 19,2 5 3 14 8 ESE 1026,7 22 60 0,0
23.08.2019 10:00:00 20,8 11,4 24,7 20,9 18,8 19,2 3 1 6 3 WSW 1026,8 20 60 0,0
23.08.2019 09:00:00 18,1 11,4 20,4 17,9 18,7 19,2 2 1 6 3 SSW 1026,9 25 60 0,0
23.08.2019 08:00:00 14,9 11,5 14,0 15,4 18,9 19,2 4 2 8 4 S 1026,9 20 16 0,0
23.08.2019 07:00:00 9,8 9,1 8,3 14,6 19,2 19,2 2 1 6 3 SSE 1027,1 5 0 0,0
23.08.2019 06:00:00 9,1 8,2 7,4 14,9 19,6 19,2 5 3 6 3 SSE 1026,9 5 0 0,0
23.08.2019 05:00:00 9,9 8,9 7,9 15,4 19,9 19,2 0 0 7 4 N 1026,6 8 0 0,0
23.08.2019 04:00:00 10,4 9,4 8,4 16,0 20,3 19,2 2 1 4 2 SE 1026,4 9 0 0,0
23.08.2019 03:00:00 11,5 10,0 9,5 16,6 20,7 19,2 0 0 5 3 N 1026,4 14 0 0,0
23.08.2019 02:00:00 12,3 10,3 9,5 17,2 21,1 19,2 2 1 7 4 E 1026,4 18 0 0,0
23.08.2019 01:00:00 13,8 10,7 10,8 17,9 21,6 19,2 3 2 9 5 ESE 1026,4 29 0 0,0
23.08.2019 00:00:00 14,5 10,5 11,0 18,7 22,0 19,2 3 1 9 5 ESE 1026,3 41 0 0,0
22.08.2019 23:00:00 15,6 10,0 11,6 19,6 22,5 19,2 3 2 7 4 ESE 1026,1 57 0 0,0
22.08.2019 22:00:00 16,3 9,8 12,9 20,8 22,9 19,2 4 2 7 4 ESE 1026,1 70 0 0,0
22.08.2019 21:00:00 18,6 9,4 14,0 22,4 23,3 19,2 4 2 6 3 E 1025,5 33 0 0,0
22.08.2019 20:00:00 22,6 9,6 18,3 24,5 23,5 19,2 2 1 11 6 SE 1024,9 18 45 0,0
22.08.2019 19:00:00 25,1 6,6 25,6 26,7 23,4 19,2 5 3 14 7 ESE 1024,7 70 60 0,0
22.08.2019 18:00:00 25,5 6,3 27,3 28,5 23,2 19,2 5 3 18 10 SE 1024,7 52 60 0,0
22.08.2019 17:00:00 25,2 7,2 29,0 29,5 22,7 19,2 6 4 16 9 SSE 1025,1 40 60 0,0
22.08.2019 16:00:00 25,4 7,4 29,1 29,8 22,1 19,2 8 4 22 12 ESE 1025,4 36 60 0,0
22.08.2019 15:00:00 24,8 6,6 29,5 29,8 21,4 19,2 11 6 24 13 NE 1025,8 43 60 0,0
22.08.2019 14:00:00 24,6 7,5 30,3 29,1 20,5 19,3 9 5 22 12 ENE 1026,2 34 60 0,0
22.08.2019 13:00:00 24,0 7,6 30,4 27,6 19,7 19,3 9 5 22 12 E 1026,9 46 54 0,0
22.08.2019 12:00:00 22,7 8,4 27,7 25,5 18,9 19,3 9 5 23 12 ESE 1027,4 39 60 0,0
22.08.2019 11:00:00 21,7 9,6 26,5 22,8 18,3 19,3 7 4 16 8 ESE 1027,9 32 60 0,0
22.08.2019 10:00:00 19,8 10,0 22,9 20,0 17,9 19,3 4 2 9 5 SSE 1028,0 29 60 0,0
22.08.2019 09:00:00 16,7 10,4 19,4 17,0 17,9 19,3 0 0 5 3 N 1028,2 20 60 0,0
22.08.2019 08:00:00 13,8 11,0 12,3 14,3 18,0 19,3 0 0 3 2 N 1028,4 13 16 0,0
22.08.2019 07:00:00 8,6 7,7 7,3 13,4 18,3 19,3 0 0 4 2 N 1028,5 5 0 0,0
22.08.2019 06:00:00 9,0 7,9 7,3 13,7 18,6 19,3 3 2 5 3 ESE 1028,3 9 0 0,0
22.08.2019 05:00:00 9,6 8,4 8,0 14,2 19,0 19,3 0 0 5 3 N 1028,4 10 0 0,0
22.08.2019 04:00:00 9,6 8,3 8,2 14,6 19,3 19,3 1 0 7 4 N 1028,4 15 0 0,0
22.08.2019 03:00:00 10,5 8,7 8,5 15,1 19,7 19,3 2 1 9 5 SE 1028,3 18 0 0,0
22.08.2019 02:00:00 10,5 9,1 8,8 15,6 20,1 19,3 3 2 7 4 SE 1028,6 21 0 0,0
22.08.2019 01:00:00 11,2 9,2 8,9 16,2 20,5 19,3 3 2 7 4 E 1028,7 25 0 0,0
22.08.2019 00:00:00 12,4 9,7 9,7 17,0 20,9 19,3 5 3 8 4 NE 1028,6 19 0 0,0
21.08.2019 23:00:00 13,2 9,7 10,8 17,8 21,3 19,3 2 1 6 3 E 1028,5 24 0 0,0
21.08.2019 22:00:00 14,2 9,7 11,4 18,8 21,7 19,3 2 1 7 4 N 1028,3 25 0 0,0
21.08.2019 21:00:00 17,3 8,6 12,9 20,0 22,1 19,3 4 2 9 5 E 1027,7 41 0 0,0
21.08.2019 20:00:00 19,2 8,9 15,2 21,9 22,3 19,3 4 2 7 4 ESE 1027,2 51 27 0,0
21.08.2019 19:00:00 21,9 7,2 20,5 23,6 22,4 19,3 3 1 6 4 ENE 1027,2 62 27 0,0
21.08.2019 18:00:00 21,9 6,6 21,5 24,8 22,4 19,3 6 4 10 5 SSE 1027,3 58 7 0,0
21.08.2019 17:00:00 22,0 6,0 22,9 26,6 22,1 19,3 4 2 17 9 SSW 1027,4 50 39 0,0
21.08.2019 16:00:00 22,8 7,6 27,0 26,9 21,6 19,3 5 3 13 7 NNW 1027,3 70 25 0,0
21.08.2019 15:00:00 21,8 6,2 25,9 28,9 20,9 19,4 7 4 16 9 NW 1027,7 53 53 0,0
21.08.2019 14:00:00 22,4 6,9 28,3 27,0 20,3 19,4 9 5 19 10 WSW 1027,9 29 41 0,0
21.08.2019 13:00:00 21,0 7,9 25,4 25,3 19,6 19,4 5 3 15 8 NW 1028,3 54 39 0,0
21.08.2019 12:00:00 19,6 9,1 22,2 24,0 19,0 19,4 6 3 14 8 WNW 1028,4 39 55 0,0
21.08.2019 11:00:00 18,9 9,7 23,8 21,5 18,6 19,4 7 4 16 9 NNW 1028,6 27 60 0,0
21.08.2019 10:00:00 18,0 10,4 21,2 19,4 18,3 19,4 4 2 16 9 NW 1028,5 33 60 0,0
21.08.2019 09:00:00 16,0 10,8 16,5 17,1 18,2 19,4 8 5 14 7 W 1028,5 21 60 0,0
21.08.2019 08:00:00 14,0 11,4 13,8 15,1 18,4 19,4 6 3 10 5 WSW 1028,1 22 16 0,0
21.08.2019 07:00:00 11,9 10,6 10,5 14,3 18,7 19,4 5 3 8 5 WSW 1027,5 16 0 0,0
21.08.2019 06:00:00 12,3 11,3 10,0 14,7 19,0 19,4 4 2 6 3 SW 1026,9 16 0 0,0
21.08.2019 05:00:00 13,1 12,1 10,8 15,3 19,3 19,4 3 2 11 6 WSW 1026,4 13 0 0,0
21.08.2019 04:00:00 13,9 13,0 12,8 16,0 19,5 19,4 4 2 10 6 WSW 1026,1 13 0 0,0
21.08.2019 03:00:00 14,4 13,2 13,2 16,7 19,8 19,4 6 3 10 6 S 1025,9 20 0 0,0
21.08.2019 02:00:00 15,1 13,2 14,2 17,3 20,0 19,4 6 3 11 6 S 1025,4 29 0 0,0
21.08.2019 01:00:00 15,0 13,4 14,3 17,5 20,2 19,4 7 4 15 8 SW 1025,3 16 0 0,3
21.08.2019 00:00:00 15,3 13,9 14,6 17,9 20,4 19,4 5 3 11 6 S 1025,1 22 0 0,3
20.08.2019 23:00:00 15,6 13,8 14,7 18,3 20,7 19,4 6 3 14 8 SSW 1024,7 19 0 0,2
20.08.2019 22:00:00 15,9 13,5 14,9 18,9 20,9 19,4 4 2 13 7 SSW 1024,3 12 0 0,9
20.08.2019 21:00:00 17,6 13,3 15,5 19,6 21,2 19,4 4 2 16 9 W 1023,8 16 0 0,1
20.08.2019 20:00:00 19,6 11,0 16,2 20,5 21,3 19,4 7 4 16 9 WNW 1022,9 19 0 0,1
20.08.2019 19:00:00 21,0 10,3 20,1 21,5 21,4 19,4 6 3 16 9 NW 1022,0 60 0 0,0
20.08.2019 18:00:00 22,8 9,1 23,1 22,6 21,4 19,4 6 3 13 7 NNW 1021,4 63 0 0,0
20.08.2019 17:00:00 23,0 8,7 23,3 23,2 21,3 19,4 5 3 9 5 NW 1021,2 70 0 0,0
20.08.2019 16:00:00 23,0 8,6 24,0 23,7 21,1 19,4 4 2 10 5 WNW 1021,2 70 0 0,0
20.08.2019 15:00:00 23,1 8,8 25,4 23,7 20,8 19,4 4 2 12 6 NNW 1021,2 70 0 0,0
20.08.2019 14:00:00 22,8 9,1 24,4 23,9 20,5 19,4 5 3 13 7 WNW 1021,2 62 0 0,0
20.08.2019 13:00:00 23,1 9,1 26,2 24,1 20,0 19,4 5 3 10 5 W 1021,4 70 1 0,0
20.08.2019 12:00:00 22,9 8,8 27,5 24,0 19,5 19,4 6 3 13 7 W 1021,4 61 44 0,0
20.08.2019 11:00:00 21,9 9,4 24,9 22,1 19,1 19,4 4 2 10 5 N 1021,2 55 55 0,0
20.08.2019 10:00:00 20,1 9,3 20,9 20,7 18,8 19,4 5 3 9 5 WSW 1021,3 69 55 0,0
20.08.2019 09:00:00 18,0 10,1 19,1 18,0 18,8 19,4 2 1 11 6 SSE 1021,2 46 58 0,0
20.08.2019 08:00:00 15,7 11,0 15,2 15,9 18,9 19,4 3 2 6 3 SSE 1020,8 44 8 0,0
20.08.2019 07:00:00 13,3 10,3 11,4 14,8 19,1 19,4 4 2 13 7 WSW 1021,1 47 0 0,0
20.08.2019 06:00:00 12,8 11,2 11,5 15,1 19,4 19,4 3 1 4 2 SSW 1020,4 36 0 0,0
20.08.2019 05:00:00 12,6 10,9 11,3 15,4 19,7 19,4 4 2 5 3 SW 1020,3 44 0 0,0
20.08.2019 04:00:00 13,8 11,1 11,9 16,1 19,9 19,4 4 2 5 3 S 1020,1 56 0 0,0
20.08.2019 03:00:00 14,7 11,7 13,1 16,7 20,2 19,4 0 0 4 2 N 1020,2 59 0 0,0
20.08.2019 02:00:00 15,1 11,0 13,7 16,8 20,4 19,4 3 2 4 2 SSE 1020,1 66 0 0,0
20.08.2019 01:00:00 15,1 10,8 13,8 17,2 20,7 19,4 0 0 4 2 N 1020,0 65 0 0,0
20.08.2019 00:00:00 15,9 10,8 14,4 17,6 21,0 19,4 0 0 4 2 N 1019,6 40 0 0,0
19.08.2019 23:00:00 16,0 10,6 14,1 17,8 21,4 19,4 2 1 4 2 SSE 1019,1 49 0 0,0
19.08.2019 22:00:00 17,0 9,8 14,7 18,2 21,8 19,4 0 0 9 5 N 1018,8 36 0 0,0
19.08.2019 21:00:00 20,8 7,5 16,0 19,1 22,2 19,4 4 2 19 10 NW 1018,2 66 0 0,0
19.08.2019 20:00:00 23,2 6,3 21,1 20,7 22,5 19,4 10 5 24 13 NW 1017,4 70 39 0,0
19.08.2019 19:00:00 23,7 7,1 22,5 22,9 22,6 19,4 12 6 27 14 W 1016,8 70 50 0,0
19.08.2019 18:00:00 25,1 7,8 26,5 24,1 22,6 19,4 9 5 29 16 W 1016,6 60 46 0,0
19.08.2019 17:00:00 24,5 8,3 25,5 25,4 22,4 19,4 10 5 31 17 WNW 1016,7 70 48 0,0
19.08.2019 16:00:00 24,9 8,8 27,6 26,3 22,2 19,4 14 7 27 14 W 1016,6 34 58 0,0
19.08.2019 15:00:00 24,3 9,1 25,4 26,4 21,9 19,4 12 6 27 14 WSW 1016,3 31 44 0,0
19.08.2019 14:00:00 23,1 9,3 24,3 26,2 21,5 19,4 8 5 23 13 W 1016,3 70 41 0,0
19.08.2019 13:00:00 22,3 10,3 25,3 26,1 21,1 19,4 9 5 25 13 WSW 1016,2 59 54 0,0
19.08.2019 12:00:00 21,9 11,6 24,8 24,8 20,7 19,4 10 6 23 12 WSW 1016,2 39 57 0,0
19.08.2019 11:00:00 20,7 14,5 22,3 23,3 20,4 19,4 10 5 19 10 WSW 1015,7 33 30 0,0
19.08.2019 10:00:00 19,0 15,6 18,7 20,8 20,3 19,4 6 3 13 7 SW 1015,5 25 0 0,0
19.08.2019 09:00:00 18,3 15,8 18,0 19,9 20,3 19,4 5 3 11 6 W 1014,6 17 0 0,0
19.08.2019 08:00:00 17,8 16,5 17,8 19,1 20,4 19,4 4 2 8 5 W 1014,7 10 0 0,0
19.08.2019 07:00:00 17,7 17,0 17,5 18,8 20,5 19,4 3 2 6 4 WSW 1014,1 10 0 1,7
19.08.2019 06:00:00 17,8 17,1 17,6 18,8 20,7 19,4 3 1 4 2 SE 1013,3 21 0 0,0
19.08.2019 05:00:00 17,5 16,9 17,0 18,8 20,9 19,4 0 0 3 2 N 1012,8 17 0 0,0
19.08.2019 04:00:00 17,2 16,7 16,7 18,7 21,1 19,4 2 1 5 3 SSW 1013,0 15 0 0,0
19.08.2019 03:00:00 17,7 17,0 16,9 19,1 21,3 19,4 0 0 6 4 N 1012,2 20 0 0,0
19.08.2019 02:00:00 17,5 16,9 16,9 19,0 21,6 19,4 3 2 8 5 S 1011,5 18 0 0,0
19.08.2019 01:00:00 18,2 17,3 17,6 19,5 22,0 19,4 3 2 9 5 WSW 1011,2 47 0 0,0
19.08.2019 00:00:00 18,8 18,2 17,9 20,1 22,3 19,4 3 2 7 4 SSE 1010,4 15 0 0,0
18.08.2019 23:00:00 19,7 18,6 18,7 20,9 22,6 19,4 4 2 14 7 NNW 1009,7 35 0 0,0
18.08.2019 22:00:00 20,9 19,0 19,7 22,0 22,9 19,4 8 5 15 8 W 1008,9 52 0 0,5
18.08.2019 21:00:00 21,5 18,7 20,0 22,9 23,2 19,4 6 3 39 21 WSW 1007,5 66 0 3,9
18.08.2019 20:00:00 27,3 14,9 26,4 25,4 23,2 19,4 13 7 32 17 W 1006,3 70 28 0,0
18.08.2019 19:00:00 28,4 15,7 28,0 27,4 23,1 19,4 16 9 39 21 SW 1006,3 70 41 0,0
18.08.2019 18:00:00 29,6 14,5 29,1 27,9 22,8 19,4 14 8 35 19 SW 1005,7 70 17 0,0
18.08.2019 17:00:00 30,2 15,0 31,0 29,1 22,4 19,4 13 7 33 18 SW 1005,6 58 32 0,0
18.08.2019 16:00:00 28,1 15,2 28,5 28,5 21,9 19,5 16 9 32 18 SW 1005,9 70 21 0,0
18.08.2019 15:00:00 28,1 15,1 30,5 30,2 21,2 19,5 16 9 35 19 WSW 1006,5 44 58 0,0
18.08.2019 14:00:00 26,7 16,1 30,0 27,5 20,6 19,5 17 9 45 24 WSW 1007,0 33 43 0,0
18.08.2019 13:00:00 23,6 16,5 24,9 25,4 20,1 19,5 16 8 33 18 WSW 1007,6 70 45 0,0
18.08.2019 12:00:00 22,2 17,3 23,0 24,7 19,7 19,5 12 7 26 14 SW 1007,7 39 27 0,0
18.08.2019 11:00:00 18,8 17,0 18,7 20,5 19,5 19,5 9 5 18 10 SW 1007,8 34 0 0,0
18.08.2019 10:00:00 18,2 17,2 18,8 19,5 19,4 19,5 6 4 16 9 S 1007,7 11 0 0,2
18.08.2019 09:00:00 17,4 16,5 17,2 18,7 19,5 19,5 10 5 21 11 SW 1008,2 4,3 0 0,7
18.08.2019 08:00:00 17,3 16,2 17,0 18,3 19,5 19,5 6 3 21 11 S 1008,2 24 0 0,2
18.08.2019 07:00:00 17,3 16,0 16,8 18,0 19,6 19,5 9 5 18 10 S 1008,6 13 0 0,5

tt = temperature
td = dewpoint
tt 5cm = temperature 5cm
tt -5cm = temperature -5cm
tt -20cm = temperature -20cm
tt -100cm = temperature -100cm
ff = wind speed
fx = gusts
dd = wind direction
ppp = reduced air pressure
vv = visibility
sd = sunshine duration
rr = precipitation

Next stations